RH
75 76 77 77 76 73 71 68 67 69 71 70 67 66 63 56 43 32 25 21 21 20 21 22 25 28 28 29 31 32 31 29 30 31 30 28 28 27 26 23 22 22 21 23 26 28 29 29 27 26 26 26 27 28 29 30 30 32 33 33 34 34
75 77 74 72 72 67 66 63 58 57 58 57 55 54 49 39 30 25 23 23 25 27 28 28 29 29 27 25 23 21 18 16 14 14 13 12 11 10 10 9 9 9 9 10 11 11 11 11 11 11 11 12 13 14 16 18 20 23 27 29 31 32
80 88 81 69 67 64 61 58 53 52 49 44 41 39 35 32 31 32 33 34 34 35 32 27 21 16 13 10 10 9 9 9 10 10 11 12 13 13 13 13 13 13 13 12 12 12 11 10 10 10 9 9 8 7 7 7 8 9 12 14 17 22
74 81 79 70 66 60 55 51 48 45 42 39 38 38 37 36 36 37 37 34 33 30 23 16 10 9 10 12 13 14 16 17 17 18 19 19 20 20 20 20 19 19 18 18 18 17 16 15 15 15 14 14 13 13 13 12 11 10 9 8 7 8
72 76 75 70 61 52 48 45 42 40 39 37 35 33 32 29 27 27 24 20 18 16 12 11 12 15 18 19 19 19 19 19 20 20 20 20 19 17 16 14 13 12 11 10 10 9 9 8 8 8 8 8 9 10 11 12 13 14 14 14 13 11
68 72 69 62 52 44 43 40 37 34 31 27 24 21 19 18 16 14 11 10 11 12 14 16 17 19 19 19 19 19 19 18 18 17 15 12 9 7 6 5 4 3 3 3 3 2 2 2 2 2 2 2 3 3 4 4 5 6 8 9 11 13
63 61 57 52 43 36 34 31 27 24 20 17 13 11 10 9 9 8 9 13 15 16 17 18 18 19 19 19 18 18 18 16 12 9 6 4 3 2 2 2 2 2 2 2 2 2 2 2 2 2 2 2 2 2 2 2 2 2 2 2 3 5
55 46 42 38 32 26 25 22 20 17 12 8 6 5 6 7 9 11 14 16 17 18 18 19 19 20 20 18 18 18 15 9 5 3 2 2 2 3 3 3 3 3 3 3 3 3 3 3 3 3 2 3 2 3 3 2 2 2 2 2 2 2
38 32 29 26 23 20 19 17 13 9 5 4 4 6 8 10 14 16 17 18 19 19 19 20 20 20 19 17 18 15 8 3 2 3 3 4 4 4 5 5 5 5 5 5 5 5 5 5 5 4 4 4 4 3 3 3 3 3 3 3 3 2
24 22 20 19 18 15 13 9 5 3 3 5 7 10 13 15 16 17 18 18 18 19 19 19 19 19 17 17 16 10 3 2 3 4 4 5 6 6 7 7 7 7 8 8 8 8 8 8 8 8 7 7 7 7 6 6 5 5 4 4 4 3
17 17 18 16 12 8 5 3 3 5 7 9 12 14 15 16 17 17 18 18 18 18 18 17 16 15 15 16 12 4 2 3 4 5 6 7 7 7 8 8 8 8 9 9 9 9 9 10 10 10 10 10 10 10 10 9 9 8 8 7 6 5
18 18 15 9 5 3 3 5 7 10 12 14 15 16 16 16 16 16 15 15 15 14 13 13 13 14 16 13 6 2 3 4 5 6 6 7 7 8 8 8 9 9 9 10 10 10 11 11 12 12 12 12 13 13 13 13 13 12 12 11 11 10
17 13 6 3 4 6 8 10 12 14 15 15 15 15 14 13 12 11 11 11 10 10 10 11 13 16 14 8 2 2 4 4 5 6 6 6 7 7 8 8 9 9 10 11 12 12 13 13 14 14 14 14 15 15 16 16 16 16 16 16 16 15
9 5 3 6 8 10 12 14 14 15 14 14 13 12 11 9 9 8 9 10 10 11 12 13 16 16 10 3 2 3 4 5 5 6 6 6 6 7 8 9 10 11 12 13 13 14 14 15 15 14 14 14 14 14 15 16 16 16 16 17 17 18
4 5 8 10 12 13 14 14 14 13 12 11 10 10 9 9 8 8 10 12 13 13 15 17 17 13 6 2 3 4 4 5 5 5 6 6 7 8 9 10 11 12 13 14 13 13 13 14 14 14 13 13 13 13 13 14 15 15 15 15 16 16
7 10 12 13 14 14 13 13 12 11 10 10 9 9 8 8 8 10 13 15 16 17 18 17 13 7 3 3 3 4 4 5 5 5 6 6 7 8 10 12 12 13 13 13 12 12 12 13 13 13 13 12 12 12 12 12 12 13 13 13 14 15
11 12 13 13 13 12 12 11 10 10 10 9 8 7 7 8 10 13 16 18 19 19 19 15 9 4 3 3 3 4 5 4 4 5 6 8 9 10 12 12 13 13 13 13 13 13 13 14 14 14 13 12 12 11 11 11 10 11 11 11 12 12
12 13 13 12 12 11 11 10 10 9 8 7 7 7 8 11 14 18 20 20 19 18 16 13 8 4 3 3 3 4 4 4 4 4 6 8 9 11 12 13 13 14 14 14 14 15 15 15 14 14 14 12 12 11 10 10 9 9 10 10 11 11
12 12 11 11 11 10 10 9 9 8 7 7 6 9 13 16 19 21 21 19 17 14 12 11 7 4 3 3 4 4 4 4 4 4 5 7 9 11 12 13 13 14 14 15 15 15 15 15 14 14 13 12 11 10 10 10 9 9 9 9 9 10
11 11 10 10 9 9 8 8 7 7 6 6 9 14 19 22 23 22 20 18 14 11 8 7 5 4 3 3 3 3 4 4 4 4 5 6 8 10 12 13 13 13 14 14 15 15 14 14 13 12 11 11 10 9 9 9 9 9 9 9 9 9
10 10 9 9 8 8 7 7 6 6 6 9 15 21 23 23 23 21 19 16 12 8 5 4 4 4 3 3 3 3 3 3 3 4 4 5 7 9 10 11 12 12 12 13 13 13 13 12 11 11 10 9 9 8 8 8 8 8 8 8 9 9
9 9 8 7 7 7 6 6 6 6 9 16 22 24 25 24 23 21 17 13 10 6 4 4 4 3 3 3 3 3 3 3 3 3 4 4 5 6 8 9 9 10 10 11 11 10 10 10 9 9 8 8 8 8 8 8 8 8 8 9 9 9
8 7 7 7 7 6 6 6 5 9 16 23 25 25 26 26 25 22 17 12 9 6 4 4 3 3 3 3 3 3 3 3 3 3 3 4 4 5 6 7 7 8 8 8 8 8 8 8 8 7 7 7 7 7 7 7 7 7 8 9 9 9
7 7 6 6 6 5 6 6 8 15 22 25 26 26 26 26 26 22 15 10 7 5 4 3 3 3 2 3 3 3 3 3 3 3 3 4 4 5 5 6 6 6 7 7 7 7 7 7 7 6 6 6 6 6 6 7 7 7 8 9 10 10
6 6 6 6 6 5 5 8 14 21 25 26 26 26 26 25 24 19 13 8 5 4 3 3 2 2 2 2 2 3 3 3 3 3 3 4 4 5 5 5 5 5 5 5 5 6 5 5 6 6 6 6 6 6 7 7 8 8 9 10 12 13
6 5 6 6 5 5 9 15 22 25 26 26 26 26 25 23 20 16 11 7 5 4 2 2 2 2 2 2 2 3 2 3 3 3 4 4 4 4 4 4 5 5 5 5 5 5 5 5 5 5 6 6 6 7 7 8 8 10 12 13 16 18
5 6 5 5 6 10 17 23 27 28 27 26 25 24 22 20 17 13 10 6 4 3 2 2 2 2 2 2 2 3 3 3 3 3 3 4 4 4 4 4 4 4 4 4 4 4 5 5 5 5 6 6 6 7 7 8 10 13 16 19 22 25
5 5 5 7 13 19 25 27 28 28 26 25 23 22 19 17 14 11 9 6 4 3 3 2 2 2 2 2 3 2 3 3 3 3 3 3 4 3 4 4 4 4 4 4 4 4 5 5 6 6 6 7 7 8 10 12 16 20 22 23 28 36
5 6 10 16 22 26 28 28 28 26 24 23 21 20 18 16 14 11 8 6 5 4 3 3 3 3 3 3 3 3 3 3 3 4 3 4 4 4 4 4 4 4 4 4 5 5 5 6 6 7 8 9 10 12 15 20 24 27 24 19 21 32
8 13 19 24 25 27 27 27 26 24 23 22 21 20 19 17 16 13 12 10 9 8 7 6 6 5 5 5 5 5 5 5 5 5 5 5 5 5 5 5 6 6 6 6 6 6 7 7 8 9 10 13 16 21 26 32 35 32 24 16 12 14
16 22 24 24 25 25 25 25 24 23 22 21 20 20 19 18 17 17 17 16 17 18 17 16 16 15 14 14 13 13 13 13 14 14 15 15 15 15 15 14 13 11 10 10 9 9 9 10 12 14 18 23 28 30 30 31 31 25 18 13 11 10
23 23 23 24 24 24 23 23 23 22 21 20 19 19 19 20 20 21 21 22 23 24 24 24 23 23 23 23 23 23 24 24 24 25 26 26 26 26 24 23 21 18 15 14 13 13 15 18 23 28 33 34 32 29 23 19 16 15 13 11 11 11
22 22 23 23 23 22 23 23 22 20 19 19 20 21 22 22 22 22 22 23 23 23 23 23 24 24 25 26 27 28 29 29 30 31 31 31 31 30 29 26 23 20 19 19 21 25 29 33 36 37 36 31 24 20 16 13 12 12 13 13 13 14
21 23 23 23 22 21 21 20 19 19 20 21 22 21 21 20 20 20 21 22 22 22 22 23 25 26 27 28 28 29 30 31 31 32 32 32 31 29 28 27 26 27 30 33 36 37 37 35 30 26 22 18 15 14 13 13 14 14 15 16 16 16
20 20 21 21 20 19 19 20 21 22 22 21 20 20 20 19 20 20 21 22 22 23 25 26 27 28 29 29 30 30 31 31 31 31 31 31 31 32 33 35 37 38 38 37 34 30 25 21 17 15 14 13 13 14 15 15 16 17 18 18 18 18
16 17 18 19 19 20 22 23 23 22 20 20 20 20 20 20 20 20 22 24 24 26 28 29 31 31 32 32 32 33 33 33 34 35 36 38 39 40 40 39 37 33 29 25 21 18 15 14 13 13 14 14 15 16 17 18 19 19 20 19 19 19
15 17 19 21 23 24 24 23 21 20 20 21 21 21 20 20 21 22 23 24 26 28 30 32 34 35 36 37 37 38 39 39 40 41 41 41 39 37 33 30 27 23 19 17 15 14 14 14 14 14 15 16 18 19 19 20 21 20 20 20 19 19
Wind_Speed
10 12 11 11 11 11 11 11 9 8 7 7 7 6 6 7 7 7 8 8 8 9 9 9 9 9 10 10 10 10 11 11 11 11 11 11 11 11 11 11 11 11 12 12 13 13 14 15 16 16 16 16 16 16 15 15 15 15 15 15 14 14
8 8 8 8 8 9 10 10 10 10 9 8 7 6 5 5 5 6 7 7 8 8 8 9 9 9 9 9 9 9 8 9 9 9 9 9 9 9 9 9 10 10 10 11 11 12 12 13 14 15 15 15 15 16 16 16 16 16 16 16 16 16
6 6 6 7 7 8 9 10 10 9 8 7 6 5 5 5 5 6 6 7 7 7 8 8 8 7 7 7 6 6 7 7 7 8 8 8 9 9 10 10 11 11 11 11 12 12 13 13 13 14 15 15 15 15 16 16 16 16 16 17 17 17
6 6 5 6 6 6 8 8 7 7 6 6 5 6 5 6 6 6 6 7 7 7 7 6 6 6 6 7 7 7 8 9 9 10 11 11 12 12 12 13 13 13 13 14 14 14 15 15 15 16 16 16 17 17 17 17 17 17 17 17 17 17
6 6 4 4 5 5 6 5 5 5 6 6 7 7 8 8 7 6 6 6 5 5 5 5 6 6 7 8 8 10 10 11 12 12 13 14 14 14 14 15 15 14 14 14 14 15 15 15 15 15 16 16 16 17 17 17 18 18 18 18 17 17
4 4 3 3 4 4 4 5 6 6 7 8 9 9 9 8 7 6 6 6 6 5 5 5 6 7 8 9 10 12 13 14 14 14 14 14 14 13 13 13 13 12 12 11 11 12 12 12 12 12 13 13 13 14 14 15 16 16 17 18 18 18
2 3 2 3 3 3 4 5 6 7 8 8 8 8 7 6 6 6 6 6 5 5 5 6 7 8 10 11 12 14 15 15 14 13 12 10 10 9 10 10 10 10 10 10 10 10 10 11 11 11 11 11 12 12 12 13 13 13 13 14 15 16
0 1 1 2 2 3 4 5 6 6 6 6 6 6 6 6 5 5 5 5 5 5 6 7 8 10 11 13 14 16 16 14 10 8 8 7 7 7 8 9 9 10 10 10 11 11 11 11 11 12 12 12 12 13 13 13 13 12 12 12 12 12
2 1 1 1 3 3 3 4 4 4 4 4 5 5 5 5 5 4 4 5 5 6 8 9 10 11 13 14 16 17 14 10 7 6 7 7 7 8 9 10 11 11 11 12 12 12 12 13 13 13 14 14 14 14 14 14 14 14 14 13 13 13
2 1 1 1 2 2 2 2 2 3 4 4 4 4 4 4 4 5 5 6 7 8 10 11 12 13 13 14 16 15 11 7 7 7 7 8 8 9 10 11 12 12 12 13 13 13 13 14 14 14 15 15 15 16 16 16 16 16 16 16 15 15
2 2 2 1 1 1 2 2 2 3 3 4 4 4 5 5 6 7 8 9 9 10 11 12 12 12 13 14 14 11 7 6 7 7 7 8 9 9 10 11 11 11 12 12 12 12 12 13 13 14 14 15 15 15 16 16 16 16 16 16 17 16
3 3 3 3 3 3 3 3 3 4 4 5 5 5 6 7 8 9 10 10 11 12 12 12 11 11 13 13 10 6 5 5 6 6 7 7 8 9 10 10 10 10 11 11 11 11 11 11 12 13 13 14 14 14 15 15 16 16 16 16 17 17
4 5 5 5 4 4 4 4 4 5 5 5 5 6 7 8 9 10 11 11 12 12 11 11 10 11 13 10 6 4 5 5 5 6 7 7 8 9 10 10 9 9 10 10 10 10 10 11 11 12 13 14 14 14 14 15 16 17 17 17 17 17
7 7 6 5 5 5 5 4 5 5 5 6 7 7 8 10 10 10 11 11 12 12 11 10 10 12 11 6 4 4 4 5 6 7 7 8 8 9 9 9 9 9 9 9 9 10 10 11 12 13 14 15 15 16 15 16 17 17 18 19 19 19
8 7 6 5 5 5 4 4 4 5 5 7 8 9 10 11 11 11 10 10 11 11 11 11 12 12 8 5 4 5 5 6 7 8 8 8 9 9 9 9 9 9 9 9 10 11 11 12 14 15 16 17 17 18 18 18 18 19 20 20 21 21
8 7 6 5 4 4 4 4 4 5 7 8 10 11 11 11 12 11 11 10 11 12 13 14 12 9 7 6 6 6 7 7 8 9 10 9 9 10 10 10 10 10 10 11 12 13 14 15 16 17 19 19 20 20 20 21 21 21 21 22 22 23
7 6 5 4 3 3 4 5 7 8 9 10 11 12 12 12 12 12 12 12 12 13 14 14 11 8 7 7 7 8 8 9 10 11 11 11 10 11 11 12 12 12 13 14 15 16 17 18 19 20 21 22 22 23 23 23 23 23 23 23 23 24
6 4 3 3 3 4 6 7 9 10 11 12 12 12 12 13 14 14 14 15 15 14 13 13 12 9 9 9 10 10 10 10 11 13 13 12 12 12 12 13 14 14 15 16 17 18 19 20 22 22 23 24 24 25 25 25 26 25 25 25 25 25
4 3 3 4 5 6 7 9 10 12 13 13 13 12 12 12 14 15 16 16 16 14 13 12 12 12 11 11 12 12 12 12 13 14 15 14 14 14 14 14 15 16 17 18 19 20 21 22 24 24 25 26 27 27 27 28 28 28 28 27 27 27
1 1 3 4 6 7 8 10 11 13 14 14 13 12 12 13 14 16 16 16 16 15 13 13 13 13 13 13 14 14 14 14 15 16 16 16 16 16 16 16 17 18 19 20 22 23 23 24 26 27 27 28 29 29 30 30 30 30 30 30 30 30
2 3 4 6 7 8 10 11 13 14 14 14 13 13 14 15 16 16 17 16 16 15 14 14 15 15 15 15 16 16 16 16 16 17 18 18 18 18 18 19 19 20 21 22 23 25 26 26 27 28 29 30 30 31 31 31 32 32 32 31 31 32
4 5 6 7 8 10 11 13 14 14 13 13 14 15 16 17 18 18 18 18 17 16 16 16 16 17 17 17 17 18 19 18 18 19 19 20 20 20 20 21 21 22 23 24 25 26 27 28 29 29 30 31 31 32 32 33 33 33 33 33 33 33
5 6 7 8 10 11 13 14 14 14 13 13 14 15 17 18 19 19 20 19 18 18 18 18 18 18 18 19 19 20 20 20 20 21 21 21 22 22 22 23 23 24 25 25 26 27 28 29 30 31 32 32 33 33 33 33 34 34 34 34 35 35
6 7 8 10 11 12 13 14 14 14 14 15 16 17 17 18 19 20 20 19 18 18 18 19 19 19 19 20 20 21 21 22 22 22 23 23 24 24 24 25 25 26 27 27 28 29 29 30 31 33 33 34 34 34 34 34 35 35 35 35 35 36
8 8 10 11 12 13 14 14 14 15 15 16 17 18 19 20 21 22 21 19 19 19 19 19 20 20 20 21 21 21 22 22 23 24 24 25 25 26 26 26 27 28 29 30 30 31 32 32 33 33 34 34 35 35 35 35 35 36 37 37 37 37
8 9 10 12 12 13 13 14 15 16 17 18 18 19 20 21 22 22 21 20 19 20 20 20 21 21 22 22 22 23 23 24 25 25 26 26 27 28 28 29 29 30 31 31 32 33 34 34 34 34 34 34 35 35 36 36 36 35 35 37 39 39
9 10 11 12 12 13 14 15 16 18 19 19 20 20 21 22 22 22 21 20 19 20 20 21 21 22 23 23 24 24 25 26 26 27 28 28 29 30 30 31 31 32 32 33 34 34 35 35 36 36 36 36 36 36 36 36 36 35 35 35 37 40
9 10 11 11 11 12 14 16 18 19 20 20 20 21 21 22 21 21 21 20 20 20 21 21 22 23 24 24 25 26 27 28 29 29 30 30 31 31 32 32 33 34 34 34 35 35 35 36 36 36 37 38 38 38 37 37 37 37 37 36 36 38
9 10 10 10 11 13 15 17 19 20 20 20 20 21 21 21 21 21 20 21 21 21 22 22 23 24 25 26 27 27 28 29 30 30 31 31 32 33 33 33 34 34 35 35 35 36 36 36 36 36 37 37 38 38 38 39 40 40 40 39 38 38
8 9 10 11 12 14 16 18 19 20 20 21 21 21 21 21 21 21 20 20 21 21 21 22 23 24 25 25 26 27 28 29 30 30 31 31 32 32 33 33 33 34 34 35 35 35 36 36 37 37 37 37 37 38 39 40 41 42 42 42 41 41
8 10 11 12 13 15 17 18 19 20 21 21 22 22 21 21 21 20 20 20 20 21 21 22 22 23 24 25 26 26 27 28 29 30 30 31 31 31 32 32 33 33 33 34 34 35 36 36 36 36 36 37 38 39 40 41 42 43 44 44 44 43
9 11 12 13 15 16 18 19 20 21 21 21 21 21 20 20 20 20 20 20 20 21 21 22 22 23 24 25 26 27 28 28 29 29 30 30 30 31 31 32 32 33 33 33 34 34 34 35 35 36 37 39 40 41 42 42 43 44 45 46 46 46
10 11 13 15 17 18 19 20 20 21 20 20 19 19 19 19 19 19 20 20 20 21 22 22 23 24 25 26 26 27 27 28 28 28 29 29 29 30 30 30 31 31 31 32 32 33 34 35 36 37 39 40 41 42 42 44 45 46 47 48 48 48
11 12 14 16 18 18 19 19 19 18 18 18 18 18 19 19 20 20 20 21 22 22 23 24 25 25 25 26 26 26 26 26 27 27 27 28 28 28 28 28 29 29 30 31 32 33 34 36 37 37 39 40 41 43 44 46 47 48 49 49 50 51
12 13 15 16 17 17 17 16 16 16 17 17 18 19 20 21 21 22 22 23 24 24 25 25 24 24 25 25 25 25 25 25 25 26 26 26 26 27 27 28 28 29 30 31 33 34 35 36 37 38 40 41 43 45 46 47 48 49 50 52 53 54
13 13 14 15 15 15 16 16 16 17 18 19 19 20 21 22 23 23 24 24 25 25 25 25 25 24 24 24 24 24 24 24 24 24 24 25 26 27 27 28 29 30 31 32 33 34 35 37 38 40 42 43 44 46 47 49 50 52 54 55 57 58
13 13 14 15 16 16 17 17 18 18 19 19 20 21 22 23 24 24 24 25 25 26 25 25 24 24 23 23 22 22 23 23 23 24 25 25 26 27 28 29 30 31 31 32 34 35 37 38 40 42 43 45 47 49 51 53 55 57 58 60 61 62
Wind_Direction
268 273 275 273 278 288 297 301 309 316 309 304 305 307 309 309 314 321 324 329 336 338 335 332 329 325 320 316 312 310 308 308 308 306 306 306 305 305 304 303 301 297 294 291 289 287 286 287 288 289 290 290 290 291 290 289 288 288 288 289 290 290
273 279 276 274 284 295 303 312 320 323 321 323 325 324 320 319 325 328 329 335 339 338 334 330 328 322 318 317 316 315 316 317 318 317 316 316 314 312 310 307 304 300 296 294 291 291 292 292 293 294 296 297 297 297 296 295 294 293 292 292 292 292
284 296 292 286 292 304 313 321 324 324 330 334 335 337 336 336 337 335 335 337 335 334 332 331 333 333 334 338 340 339 338 335 332 328 325 323 321 317 313 310 306 304 302 300 300 300 300 300 301 301 302 303 303 303 303 302 301 300 299 298 296 295
290 299 303 301 308 323 324 328 330 329 335 339 341 341 345 348 345 342 340 339 336 338 343 349 356 2 2 359 355 349 344 339 333 329 327 325 322 318 313 309 306 305 304 304 304 304 303 303 304 304 305 305 305 304 304 304 303 303 302 301 300 299
291 296 310 323 330 343 335 332 334 333 339 344 347 347 348 348 349 353 357 2 5 9 13 14 12 9 3 356 350 344 338 333 329 326 324 321 318 314 310 308 306 306 307 308 308 308 309 310 311 311 311 310 308 305 303 302 300 299 298 298 297 297
295 304 331 338 335 345 333 333 339 341 347 348 349 348 349 351 0 20 31 35 36 34 26 16 7 360 353 347 342 338 332 328 325 322 321 319 317 316 314 315 317 320 324 326 327 327 328 330 331 331 327 325 321 317 314 310 307 303 299 297 295 294
294 303 337 344 336 340 338 346 347 346 350 352 356 359 8 20 32 42 41 40 36 25 12 1 354 348 343 339 335 332 328 325 323 323 324 327 331 332 332 335 340 345 349 352 353 353 353 353 353 351 347 345 343 341 339 336 331 326 319 312 304 299
245 304 360 353 327 328 341 348 343 344 355 9 21 28 35 41 45 42 34 27 15 1 351 344 341 338 335 332 329 328 326 326 329 335 343 350 352 350 348 350 352 354 356 356 357 358 357 355 353 350 348 348 348 348 348 346 344 342 340 336 328 319
149 170 327 320 314 322 337 342 343 357 19 36 38 37 38 39 37 28 14 1 348 340 336 333 332 331 329 327 327 327 328 336 349 357 1 3 359 354 353 353 354 355 356 356 356 357 357 355 351 348 346 345 344 344 342 340 339 338 337 336 334 332
166 200 240 276 296 313 348 14 33 35 38 37 34 35 31 22 10 354 343 334 331 329 327 326 325 324 324 325 327 329 335 350 359 3 6 4 359 354 354 355 355 354 355 356 358 359 359 357 353 350 347 346 345 343 341 338 336 334 332 330 328 327
185 201 205 198 181 129 92 80 66 49 41 34 29 23 9 354 342 332 326 323 321 320 319 318 318 320 321 324 327 331 342 351 355 0 2 359 353 349 349 351 352 352 353 353 356 358 359 357 352 348 346 345 346 345 342 338 336 334 331 329 326 324
188 181 165 150 136 121 104 85 66 53 43 31 18 3 350 340 331 325 320 316 314 313 313 314 316 317 319 323 325 329 339 344 345 348 349 346 342 339 340 343 346 346 346 345 348 350 350 349 345 343 342 342 344 342 340 336 335 333 330 327 325 323
161 150 139 131 121 105 87 71 58 46 31 16 360 346 335 328 324 320 315 312 310 310 311 312 314 314 315 318 318 320 327 328 329 331 333 331 329 328 329 332 335 335 334 335 339 340 342 340 337 338 338 339 340 339 336 333 332 331 329 327 324 323
137 132 129 121 108 91 77 61 45 27 10 352 339 330 324 322 320 317 314 311 310 309 310 310 309 309 309 307 300 303 308 308 311 314 317 317 315 316 317 320 322 322 323 325 329 333 335 334 331 332 333 334 333 332 331 329 327 327 326 324 322 321
126 124 121 109 93 78 63 43 21 3 346 331 325 322 321 320 317 315 312 308 307 307 307 307 306 304 298 289 285 287 290 294 298 301 304 304 304 305 305 307 308 308 310 314 321 327 329 327 325 326 327 328 327 325 324 323 322 320 320 319 317 317
120 116 110 98 80 57 30 8 351 336 326 322 322 320 318 314 310 308 306 304 303 303 304 304 302 291 277 274 273 272 278 285 290 293 295 296 296 297 297 298 298 300 304 310 318 323 323 322 322 321 321 322 321 320 319 318 317 315 315 314 313 312
114 108 99 84 60 24 355 340 332 326 322 321 319 316 312 309 306 305 304 303 301 298 298 298 293 273 259 260 262 266 271 279 286 288 290 292 292 293 293 294 294 297 302 308 314 317 317 317 318 317 316 317 316 315 314 313 313 312 311 310 309 309
103 91 70 40 10 349 334 326 320 317 316 315 314 311 308 307 305 305 304 303 300 296 292 289 281 266 256 254 256 262 268 274 280 283 285 288 289 290 290 290 292 295 298 302 307 310 310 311 312 311 311 311 311 310 309 309 308 308 308 307 306 306
81 55 13 346 333 325 318 313 310 311 312 311 309 307 305 303 301 302 302 301 298 294 287 278 268 260 256 255 257 261 266 271 276 279 282 284 286 286 286 287 289 292 295 298 301 303 303 304 305 306 306 306 306 305 305 304 305 305 305 305 305 304
82 326 303 303 303 303 303 304 306 309 310 309 306 303 301 300 299 300 301 299 295 288 278 267 259 257 256 257 260 262 266 270 274 277 280 282 283 283 284 285 287 289 291 294 296 298 299 299 301 302 302 301 302 302 302 302 302 302 302 303 303 302
224 258 272 282 289 296 301 304 307 309 310 308 305 303 303 304 304 304 301 297 290 281 270 261 258 258 258 259 262 265 268 271 274 277 280 283 284 284 285 286 287 288 289 291 292 294 296 297 297 297 297 298 298 298 299 299 299 299 300 300 301 301
241 259 273 285 294 302 306 308 309 309 308 306 305 306 308 310 312 310 305 298 289 280 272 266 263 262 263 264 267 270 273 275 278 280 283 286 287 288 288 289 289 290 290 291 292 293 294 295 294 294 294 295 295 296 297 298 298 299 298 298 299 299
261 272 285 293 300 306 309 310 310 308 307 306 306 306 308 311 312 311 307 301 292 285 279 275 271 270 269 270 272 275 278 281 283 285 287 288 290 291 291 291 292 292 292 292 292 292 293 293 294 294 294 295 295 296 297 297 298 298 298 298 298 299
275 286 294 300 306 311 312 312 311 310 309 308 307 307 308 310 312 311 308 302 293 286 281 277 275 273 273 274 276 279 282 284 286 288 289 290 292 292 292 292 293 293 293 293 292 291 291 292 292 293 294 295 296 297 298 298 298 298 298 298 298 299
284 293 300 305 310 313 314 313 312 310 310 310 310 310 312 314 314 312 309 303 296 289 284 281 278 278 278 279 280 282 283 285 286 287 289 290 291 291 291 291 292 292 292 292 292 291 291 291 291 291 293 294 295 297 297 298 298 298 300 300 300 300
291 299 303 307 312 315 316 314 313 313 313 313 313 313 314 314 312 310 307 303 297 292 288 286 284 283 282 282 282 282 283 284 285 286 288 289 290 291 290 291 290 290 290 291 291 291 292 292 292 292 292 293 294 295 296 297 297 298 299 301 302 302
296 301 304 309 314 316 316 315 314 314 314 314 314 313 312 311 310 308 304 301 297 293 289 287 285 284 284 283 284 284 285 285 286 287 288 289 289 289 289 289 289 289 290 291 291 292 292 293 294 294 295 295 296 297 298 298 299 300 300 299 300 301
300 304 308 312 314 315 315 315 315 315 314 314 312 311 310 309 309 307 305 301 298 295 292 289 287 286 286 286 286 286 287 287 288 288 288 288 288 287 287 288 289 290 292 292 293 293 294 294 295 297 298 299 300 302 303 303 303 303 302 300 298 297
303 308 310 311 311 312 314 315 315 315 313 310 309 308 309 310 311 310 308 305 302 300 297 295 293 291 290 289 289 288 288 288 288 288 287 287 287 288 289 291 292 293 294 295 295 296 297 297 298 299 300 302 303 305 305 304 304 303 302 301 299 296
306 308 308 307 309 312 315 315 313 311 308 307 308 310 312 313 313 312 311 310 308 306 303 300 297 295 293 292 291 290 290 289 289 289 289 290 291 293 294 295 296 297 298 299 299 300 301 301 301 302 303 304 304 303 302 301 301 301 301 301 300 298
305 305 306 309 312 316 316 313 309 307 306 308 310 312 313 314 314 315 316 316 316 314 310 307 303 301 299 297 296 295 295 295 295 296 297 299 300 301 301 302 302 303 303 303 304 304 304 304 304 304 304 304 303 302 302 301 300 301 301 300 299 298
302 306 312 316 318 317 314 310 307 306 307 310 313 315 317 318 320 323 325 325 322 318 314 311 309 308 307 307 306 305 305 305 306 306 307 307 307 307 307 307 307 307 307 307 306 306 305 305 305 305 304 304 304 303 303 302 301 301 300 298 297 296
306 316 322 322 320 316 311 308 307 308 312 316 319 323 325 328 329 331 330 328 323 320 317 317 317 317 316 315 313 313 313 313 313 313 312 312 311 311 310 309 309 309 308 307 307 306 306 306 305 304 304 303 303 303 302 302 301 300 298 297 297 297
316 325 326 322 317 313 311 310 312 316 321 325 329 333 335 335 336 336 335 330 327 325 324 324 324 322 320 319 318 318 317 317 317 317 316 315 314 313 312 311 310 309 308 308 307 307 306 305 305 304 304 304 304 304 304 302 301 300 299 299 299 299
320 323 323 321 318 317 317 319 323 328 331 336 340 341 341 341 341 339 336 332 329 329 328 327 325 323 322 322 322 321 321 320 320 318 317 316 315 314 313 312 311 310 309 308 307 307 307 306 307 307 308 307 306 305 304 303 302 302 302 302 302 301
318 322 326 328 329 328 329 332 335 338 342 345 346 344 343 343 341 339 336 332 330 329 328 327 326 325 325 324 324 323 322 320 318 316 316 315 315 314 314 313 312 311 310 310 310 309 310 310 310 309 308 307 306 305 306 306 307 307 306 306 305 304
321 331 337 340 339 338 338 340 342 345 348 348 345 343 343 343 341 340 337 333 331 329 327 326 326 326 325 324 323 321 319 317 316 315 315 316 316 316 315 314 313 312 311 311 312 311 311 310 310 309 309 310 310 311 312 312 311 310 310 308 307 307